Weather History for St. Catharines ON, Ontario

Change the Weather History Date:

Monday, January 20, 2014

  Actual Average Record
Temperature  
Mean Temperature 21 °F -  
Max Temperature 28 °F 30 °F - ()
Min Temperature 14 °F 20 °F - ()
Degree Days  
Heating Degree Days 44    
Moisture  
Dew Point 13 °F    
Average Humidity 75    
Maximum Humidity 93    
Minimum Humidity 57    
Precipitation  
Precipitation 0.00 in -13.12 in - ()
Sea Level Pressure  
Sea Level Pressure 29.79 in    
Wind  
Wind Speed 10 mph ()    
Max Wind Speed 16 mph    
Max Gust Speed 22 mph    
Visibility 10.4 miles    
Events Snow    
T = Trace of Precipitation, MM = Missing Value Source: Averaged Metar Reports

Daily Weather History Graph

Daily Weather History Graph

Search for Another Location

Airport:

Trip Planner

Search our weather history database for the weather conditions in past years. The results will help you decide how hot, cold, wet, or windy it might be!

Date:

Astronomy

Jan. 20, 2014 Rise Set
Actual Time 7:42 AM EST 5:13 PM EST
Civil Twilight 7:11 AM EST 5:44 PM EST
Nautical Twilight 6:36 AM EST 6:19 PM EST
Astronomical Twilight 6:02 AM EST 6:53 PM EST
Moon 9:55 PM EST (1/20) 9:33 AM EST (1/20)
Length of Visible Light 10h 32m
Length of Day
9h 30m
Waning Gibbous, 83% of the Moon is Illuminated
Jan 20
Waning Gibbous
Jan 24
Last Quarter
Jan 30
New
Feb 6
First Quarter
Feb 14
Full

Hourly Weather History & Observations

Time (EST) Temp. Windchill Dew Point Humidity Pressure Visibility Wind Dir Wind Speed Gust Speed Precip Events Conditions
7:00 AM 28.4 °F 18.5 °F 26.6 °F 93% 29.57 in 12.0 mi NNW 11.5 mph 18.4 mph N/A Snow Light Snow Showers
7:26 AM 26.6 °F 17.5 °F 23.0 °F 86% 29.60 in 12.0 mi North 9.2 mph - N/A   Overcast
8:00 AM 26.6 °F 15.7 °F 21.2 °F 80% 29.62 in 15.0 mi NNW 12.7 mph 18.4 mph N/A   Overcast
8:19 AM 26.6 °F 16.8 °F 21.2 °F 80% 29.64 in 12.0 mi NNW 10.4 mph 18.4 mph N/A Snow Light Snow Showers
8:27 AM 26.6 °F 17.5 °F 21.2 °F 80% 29.65 in 12.0 mi NNW 9.2 mph - N/A Snow Light Snow Showers
9:00 AM 23.0 °F 10.6 °F 19.4 °F 86% 29.67 in 7.0 mi North 13.8 mph - N/A Snow Light Snow Showers
9:25 AM 21.2 °F 8.3 °F 17.6 °F 86% 29.69 in 4.0 mi North 13.8 mph 20.7 mph N/A Snow Light Snow Showers
10:00 AM 21.2 °F 10.1 °F 14.0 °F 74% 29.69 in 10.0 mi North 10.4 mph - N/A Snow Light Snow Showers
10:47 AM 21.2 °F 8.3 °F 14.0 °F 74% 29.73 in 15.0 mi NNW 13.8 mph - N/A   Mostly Cloudy
11:00 AM 19.4 °F 7.9 °F 14.0 °F 80% 29.73 in 15.0 mi North 10.4 mph - N/A   Mostly Cloudy
12:00 PM 19.4 °F 7.2 °F 12.2 °F 74% 29.78 in 15.0 mi NNW 11.5 mph 18.4 mph N/A   Overcast
1:00 PM 19.4 °F 9.5 °F 12.2 °F 74% 29.78 in 4.0 mi North 8.1 mph - N/A Snow Light Snow Showers
1:12 PM 17.6 °F 4.3 °F 12.2 °F 79% 29.79 in 2.0 mi NNW 12.7 mph - N/A Snow Light Snow Showers
1:20 PM 17.6 °F 5.0 °F 12.2 °F 79% 29.80 in 0.8 mi NNW 11.5 mph - N/A Snow Light Snow Showers
1:24 PM 17.6 °F 5.0 °F 14.0 °F 86% 29.80 in 0.5 mi NNW 11.5 mph - N/A Snow Snow Showers
1:38 PM 17.6 °F 6.4 °F 14.0 °F 86% 29.80 in 1.0 mi NNW 9.2 mph - N/A Snow Light Snow Showers
2:00 PM 17.6 °F 6.4 °F 14.0 °F 86% 29.81 in 1.5 mi North 9.2 mph - N/A Snow Light Snow Showers
2:10 PM 17.6 °F 5.0 °F 12.2 °F 79% 29.81 in 7.0 mi NNW 11.5 mph - N/A Snow Light Snow Showers
2:46 PM 19.4 °F 6.0 °F 8.6 °F 63% 29.83 in 15.0 mi NW 13.8 mph 21.9 mph N/A   Mostly Cloudy
3:00 PM 19.4 °F 6.0 °F 8.6 °F 63% 29.84 in 15.0 mi NW 13.8 mph 20.7 mph N/A   Mostly Cloudy
4:00 PM 17.6 °F 5.7 °F 8.6 °F 68% 29.88 in 15.0 mi NW 10.4 mph 18.4 mph N/A   Mostly Cloudy
5:00 PM 17.6 °F 3.7 °F 6.8 °F 63% 29.93 in 15.0 mi WNW 13.8 mph 21.9 mph N/A   Mostly Cloudy
6:00 PM 15.8 °F 0.3 °F 5.0 °F 62% 29.96 in 15.0 mi WNW 16.1 mph - N/A   Mostly Cloudy
7:00 PM 15.8 °F 1.4 °F 3.2 °F 58% 29.99 in 15.0 mi WNW 13.8 mph - N/A   Mostly Cloudy
8:00 PM 14.0 °F -0.2 °F 3.2 °F 62% 30.01 in 15.0 mi NNW 12.7 mph - N/A   Mostly Cloudy
8:18 PM 14.0 °F -0.2 °F 3.2 °F 62% 30.02 in 15.0 mi WNW 12.7 mph - N/A Snow Light Snow Showers
9:00 PM 14.0 °F -2.0 °F 1.4 °F 57% 30.02 in 15.0 mi NW 16.1 mph - N/A   Mostly Cloudy